Lapse_Rate
5.8 6.1 6.5 6.3 6.2 6.2 6.0 6.6 6.9 6.3 6.3 6.0 4.9 5.3 5.0 3.9 4.4 4.4 4.7 5.0 4.9 4.5
6.2 6.0 6.0 6.4 6.1 6.8 6.1 6.3 6.5 6.1 5.7 5.8 5.2 5.5 5.0 3.9 4.0 4.8 4.3 4.2 4.7 4.3
5.9 6.0 5.9 6.1 5.5 5.8 6.2 6.4 6.0 5.6 5.7 5.6 5.9 5.5 4.7 4.4 3.7 3.9 3.9 4.4 4.5 4.3
5.8 6.0 5.7 5.6 5.9 5.7 5.2 4.9 4.9 5.0 5.2 5.2 4.9 4.7 4.6 4.1 3.6 4.6 4.9 4.5 4.3 4.8
5.8 6.1 6.0 5.7 5.3 5.5 4.7 4.8 4.1 4.6 4.8 4.5 4.4 4.4 4.0 4.0 4.2 4.6 4.7 4.8 5.4 5.2
5.9 5.8 5.9 5.9 5.6 5.3 5.7 5.1 4.8 4.2 4.2 4.1 4.1 3.8 4.1 4.0 3.8 3.7 4.0 4.8 5.6 5.4
6.0 5.8 5.8 5.8 5.7 5.3 5.2 4.7 4.2 4.0 3.6 3.6 3.5 3.3 3.5 4.0 4.0 4.2 4.3 4.6 4.7 4.6
5.8 5.9 5.6 5.6 5.7 5.4 5.1 4.6 4.4 4.2 3.8 3.5 3.3 3.1 3.0 3.1 3.5 3.5 3.7 3.7 3.9 4.3
5.6 5.7 5.7 5.5 5.6 5.3 4.9 4.8 4.7 4.3 4.2 3.8 3.8 3.4 3.4 3.3 3.5 4.1 4.1 4.4 4.3 3.8
5.9 5.9 5.9 5.7 5.7 5.6 5.2 5.1 4.9 4.8 4.4 4.4 4.3 4.2 4.3 4.5 4.4 4.6 4.8 4.8 4.2 4.3
6.0 5.8 6.1 5.8 5.7 5.7 5.5 5.3 5.1 5.0 4.9 4.8 4.9 4.8 4.9 5.0 5.1 5.1 5.1 5.1 4.9 4.8
5.5 5.5 5.6 5.7 5.5 5.4 5.7 5.7 5.6 5.2 5.0 5.1 5.0 5.1 5.3 5.3 5.4 5.3 5.2 5.1 5.0 5.0
5.8 5.6 5.7 5.8 5.7 5.5 5.7 5.7 5.2 5.4 5.4 5.4 5.3 5.3 5.3 5.3 5.2 5.2 5.2 5.2 5.1 5.1
6.0 6.1 6.2 6.1 6.0 6.1 5.9 5.7 5.5 5.4 5.3 5.3 5.3 5.4 5.3 5.4 5.3 5.0 5.3 5.3 5.2 5.1
Wind_Speed
9 6 8 10 6 7 8 8 8 6 8 13 16 11 10 10 10 11 9 9 6 5
7 5 5 7 6 3 4 6 9 8 10 11 13 17 11 8 9 9 8 8 7 4
5 5 3 4 6 4 4 5 5 5 8 10 10 15 12 9 7 9 5 5 7 4
5 4 5 3 5 5 4 5 7 5 6 7 8 9 9 9 9 8 7 5 7 6
6 5 6 6 4 5 5 3 6 6 5 5 5 6 9 9 8 9 8 7 7 6
6 8 8 8 7 5 5 4 4 4 6 4 4 6 6 7 8 7 7 7 8 8
5 6 7 8 9 9 7 8 6 4 4 4 4 4 5 6 6 6 5 6 6 7
3 4 4 7 9 10 10 10 9 10 5 6 5 4 6 6 7 7 6 6 7 6
5 4 5 7 8 9 8 8 9 9 10 4 3 8 9 7 5 6 6 6 4 5
8 7 6 5 7 8 9 8 8 9 10 9 6 13 13 12 7 8 7 7 6 5
8 8 9 8 7 6 6 6 5 6 5 6 5 13 13 12 7 6 6 7 7 7
7 7 8 9 9 7 8 9 8 6 6 6 4 8 12 9 6 6 5 5 4 5
7 6 8 8 8 7 10 10 9 11 9 14 10 14 14 10 6 8 6 7 6 11
6 7 7 8 8 8 10 11 11 12 11 12 10 10 15 13 7 7 6 5 5 4
Wind_Direction
226 213 210 199 184 201 202 194 174 182 173 168 148 156 193 169 157 157 154 146 141 149
215 208 204 178 154 157 157 150 153 156 149 152 162 149 173 153 145 155 155 153 138 135
202 199 158 148 151 151 111 122 120 125 126 139 152 150 155 146 142 146 142 149 145 141
192 193 159 138 139 151 99 108 99 108 114 119 137 132 122 140 146 147 140 139 162 161
194 179 181 168 147 148 140 113 104 95 103 99 92 110 130 137 148 147 155 155 143 150
197 190 189 182 163 152 145 133 98 104 91 95 125 149 129 137 142 147 155 156 154 158
199 184 192 181 164 166 159 168 186 188 133 113 74 59 109 119 114 122 131 132 123 140
99 148 150 156 156 155 166 177 170 172 217 126 140 150 150 149 147 146 143 147 148 152
53 57 117 133 135 141 151 154 165 168 177 149 153 170 159 138 129 128 139 141 125 131
45 48 54 94 141 146 145 140 149 152 162 178 162 154 144 133 138 144 152 151 151 139
42 44 52 53 68 92 116 121 121 124 119 134 144 164 156 148 147 148 154 158 162 161
50 52 58 54 52 51 82 87 78 70 77 97 96 163 148 129 120 117 109 109 127 145
60 59 68 69 66 73 77 77 82 75 64 71 72 84 99 102 109 101 92 78 79 98
61 74 72 76 72 78 81 84 80 79 67 66 62 76 89 90 91 104 100 93 91 92